373  
ASUS41 KLWX 160011  
RWRLWX  
 
REGIONAL WEATHER ROUNDUP  
NATIONAL WEATHER SERVICE BALTIMORE MD/WASHINGTON DC  
800 PM EDT SUN SEP 15 2019  
 
NOTE: "FAIR" INDICATES FEW OR NO CLOUDS BELOW 12,000 FEET  
WITH NO SIGNIFICANT WEATHER AND/OR S TO VISIBILITY
.  
TC=TEMPERATURE CELSIUS  
 
* =NON NWS SITE. STATION DOES NOT REPORT PRECIPITATION (E.G. RAIN,  
SNOW, ETC.), THUNDER, OR FOG.
 
 
DCZ001-MDZ009-015-VAZ040>042-051-053>054-160100-  
WASHINGTON METRO  
 
CITY SKY/WX TMP DP RH WIND PRES REMARKS
 
WASHINGTON NAT FAIR 80 57 45 N5 30.09S  
DULLES FAIR 72 54 53 VRB6 30.10F  
ANDREWS AFB FAIR 73 61 64 CALM 30.09S  
FT BELVOIR FAIR 72 58 61 CALM 30.09S  
QUANTICO FAIR 75 66 73 NW5 30.09S  
COLLEGE PARK* FAIR 71 53 53 CALM 30.09S  
LEESBURG* FAIR 73 59 60 CALM 30.12S  
MANASSAS* FAIR 72 57 59 CALM 30.10S  
GAITHERSBURG* FAIR 70 62 76 CALM 30.12S  
 

 
 
MDZ006>007-011-014-160100-  
BALTIMORE METRO  
 
CITY SKY/WX TMP DP RH WIND PRES REMARKS
 
BWI AIRPORT FAIR 80 54 40 CALM 30.09S  
MD SCIENCE CTR N/A 81 54 39 MISG 30.09S  
MARTIN STATE CLEAR 73 64 73 CALM 30.11R  
ANNAPOLIS FAIR 79 64 60 NW3 30.08S  
FORT MEADE* FAIR 68 61 77 CALM 30.12S  
 

 
 
MDZ012-015-019>023-160100-  
MARYLAND EASTERN SHORE  
 
CITY SKY/WX TMP DP RH WIND PRES REMARKS
 
OCEAN CITY FAIR 71 71 100 CALM 30.10R FOG  
SALISBURY FAIR 73 70 90 CALM 30.09S  
BAY BRIDGE AP* FAIR 72 61 68 CALM 30.08F  
CAMBRIDGE* CLEAR 73 64 73 CALM 30.08S  
EASTON* CLEAR 73 61 64 CALM 30.12F  
 

 
 
MDZ017>025-160100-  
SOUTHERN MARYLAND  
 
CITY SKY/WX TMP DP RH WIND PRES REMARKS
 
PATUXENT RIVER FAIR 73 66 78 CALM 30.08S  
ST INIGOES FAIR 75 67 76 CALM 30.08S  
LEONARDTOWN* N/A 72 68 88 CALM 30.11R  
 

 
 
MDZ003>005-160100-  
NORTH CENTRAL MARYLAND  
 
CITY SKY/WX TMP DP RH WIND PRES REMARKS
 
FREDERICK* CLEAR 73 61 64 CALM 30.10S  
HAGERSTOWN APT FAIR 79 55 43 S3 30.10F  
 

 
 
MDZ501>502-160100-  
WESTERN MARYLAND  
 
CITY SKY/WX TMP DP RH WIND PRES REMARKS
 
OAKLAND* FAIR 66 50 55 CALM 30.21F  
CUMBERLAND* FAIR 73 58 61 CALM 30.14F  
 

 
 
VAZ025>031-160100-  
SHENANDOAH VALLEY  
 
CITY SKY/WX TMP DP RH WIND PRES REMARKS
 
WINCHESTER* FAIR 70 54 56 CALM 30.10S  
FRONT ROYAL* FAIR 72 57 60 CALM 30.11S  
LURAY* FAIR 73 54 49 NE3 30.12S  
NEW MARKET* FAIR 66 56 70 CALM 30.11S  
STAUNTON* FAIR 69 58 65 CALM 30.15R  
WAYNESBORO* FAIR 73 64 74 CALM 30.14S  
 

 
 
WVZ021-048>050-054>055-160100-  
EASTERN WEST VIRGINIA PANHANDLE  
 
CITY SKY/WX TMP DP RH WIND PRES REMARKS
 
MARTINSBURG FAIR 74 55 51 SE3 30.10S  
PETERSBURG* FAIR 66 58 76 CALM 30.12S  
 

 
 
VAZ036>039-050-160100-  
CENTRAL FOOTHILLS  
 
CITY SKY/WX TMP DP RH WIND PRES REMARKS
 
CHARLOTTESVILL FAIR 79 63 57 CALM 30.10S  
CULPEPER* FAIR 70 58 65 N5 30.11S  
ORANGE* FAIR 70 64 83 CALM 30.10S  
GORDONSVILLE* FAIR 71 66 84 CALM 30.10R  
WARRENTON* FAIR 65 56 74 CALM 30.10S  
 

 
 
VAZ055>057-160100-  
NORTH AND CENTRAL PIEDMONT  
 
CITY SKY/WX TMP DP RH WIND PRES REMARKS
 
FREDERICKSBRG* FAIR 74 68 81 CALM 30.08S  
STAFFORD* FAIR 69 69 100 NW3 30.13S  
 

 
 
NCZ024-NYZ072-PAZ021-071-VAZ022-071-160100-  
OTHER REGIONAL OBSERVATIONS  
 
CITY SKY/WX TMP DP RH WIND PRES REMARKS
 
NEW YORK CITY FAIR 76 54 46 CALM 30.10S  
PHILADELPHIA FAIR 79 52 38 N6 30.09S  
PITTSBURGH CLOUDY 74 58 57 CALM 30.11F  
ROANOKE FAIR 79 62 56 CALM 30.14S  
RICHMOND FAIR 79 70 74 NE3 30.09S  
RALEIGH MOCLDY 80 70 71 E3 30.08S  
 

 
 
ANZ530>537-160100-  
MARINE OBSERVATIONS  
 
STATION/POSITION TIME TEMP WIND PRES
 
AIR SEA DIR/SP/G  
(UTC) (F) (DEG/KT/KT) (MB)  
THOMAS PT LIGHT 0000 78 77 330/ 3/ 3 1019.7F  
BALT KEY BRIDGE 2324 78 160/ 4/ 4 1018.9  
COVE POINT 2324 78 340/ 4/ 5 1019.3  
LEWISETTA 2318 78 77 160/ 1/ 2 1018.8  
SOLOMONS ISLAND 2324 79 78 10/ 2/ 2 1018.3  
PINEY POINT 2330 170/ 4/ 4 N/A  
 

 
 
 
 
CLICK HERE TO GO TO PREVIOUS BULLETINS.

The Nexlab VA Page
The Nexlab MD Page
The Nexlab WV Page Main Text Page